Warning: Javascript must be enabled to use all the features on this page!


Page Loading - Please Wait...

Click to hideNews Bulletins

Peak Streamflow for the Nation

USGS 04096405 ST. JOSEPH RIVER AT BURLINGTON, MI

Calhoun County, Michigan
Hydrologic Unit Code 04050001
Latitude  42°06'11", Longitude  85°04'48" NAD27
Drainage area 206  square miles
Gage datum 900.30 feet above NAVD88
Output formats
Table
Graph
Tab-separated file
peakfq (watstore) format
Reselect output format
Water
Year
Date Gage
Height
(feet)
Stream-
flow
(cfs)
1963 1963-03-20 3.753 358
1964 1964-04-06 3.463 279
1965 1965-04-18 4.323 460
1966 1965-12-28   4502
1967 1967-04-06 4.833 694
1968 1968-02-05 5.513 1,000
1969 1969-02-02 5.303 905
1970 1970-04-08 4.383 507
1971 1971-02-28 4.953 725
1972 1972-04-22 4.173 454
1973 1973-01-01 4.483 553
1974 1974-03-10 5.313 910
1975 1975-03-01 4.263 507
1976 1976-03-06 5.313 1,030
1977 1977-04-03 4.083 415
1978 1978-06-27 5.203 965
1979 1979-03-10 4.823 760
1980 1980-06-08 4.613 755
1981 1981-02-24 4.622,3 710
1982 1982-03-21 5.783 1,340
1983 1983-05-08 4.803 700
1984 1984-03-17 4.353 527
1985 1985-02-27 5.583 1,220
1986 1986-03-19 4.413 608
1987 1986-10-04 4.783 734
1988 1988-04-07 4.373 536
1989 1989-06-05 5.823 1,390
1990 1990-03-13   9031
1991 1990-12-31 5.233 740
1992 1992-04-29 4.346 260
1993 1993-01-05 6.21 797
1994 1994-02-22 5.271 3902
1995 1995-03-13 4.53 302
1996 1996-05-16 5.72 630
1997 1997-02-28 6.16 779
1998 1998-01-09 5.812 659
1999 1999-04-24 5.472 558
2000 2000-06-26 5.87 681
2001 2001-02-10 6.332 841
2002 2002-05-18 5.47 555
2003 2003-04-05 4.80 372
2004 2004-06-18 5.23 486
2005 2005-01-14 6.042 738
2006 2006-03-14 5.26 494
2007 2007-01-06 5.91 695
2008 2008-09-16 6.83 1,130
2009 2009-03-11 6.50 973
2010 2010-05-23 6.08 786
2011 2011-05-31 6.13 705
2012 2011-12-06 6.172 721
2013 2013-04-24 6.51 954
2014 2014-03-22 6.07 761
2015 2015-06-16 6.03 745
2016 2016-05-02 4.95 343
2017 2017-04-07 6.27 766
2018 2018-02-22 6.93 1,190
2019 2019-05-08 6.07 708
2020 2020-05-19 6.70 1,000
2021 2021-07-01 5.12 373
2022 2022-02-24 6.41 810
?
  Peak Gage-Height Qualification Codes.
?
  Peak Streamflow Qualification Codes.